EW9766 Weather Reports


time (UTC)temp
C
wind
direction
speed
KPH
gust
KPH
rain 1hr
cm
rain 24hr
cm
rain mn
cm
humidity
%
barometer
mb
20260904061535 7 201 4.8 9.7 0.00 0.00 0.00 94 1012.1
20260904054651 8 143 4.8 8.0 0.00 0.00 0.00 94 1012.0
20260904053032 8 186 3.2 6.4 0.00 0.00 0.00 94 1012.1
20260904043105 9 90 1.6 4.8 0.00 0.00 0.00 93 1012.4
20260904041533 9 169 1.6 6.4 0.00 0.00 0.00 92 1012.4
20260904040034 9 213 3.2 6.4 0.00 0.00 0.00 92 1012.3
20260904034536 9 178 3.2 9.7 0.00 0.00 0.00 91 1012.0
20260904033033 9 157 1.6 4.8 0.00 0.00 0.00 91 1012.0
20260904031535 9 157 3.2 4.8 0.00 0.03 0.00 90 1012.0
20260904030107 9 158 3.2 6.4 0.00 0.05 0.00 89 1011.9
20260904013148 11 270 1.6 4.8 0.00 0.36 0.00 87 1011.7
20260904011606 11 268 1.6 6.4 0.00 0.36 0.00 86 1011.7
20260904010035 11 266 3.2 9.7 0.00 0.41 0.00 85 1011.5
20260904004533 11 243 3.2 8.0 0.00 0.46 0.00 84 1011.4
20260904003030 11 251 3.2 8.0 0.00 0.48 0.00 82 1011.4
20260904001607 12 296 3.2 8.0 0.00 0.48 0.00 80 1011.3
20260904000032 12 329 6.4 12.9 0.00 0.58 0.00 79 1011.4
20260903233031 13 357 6.4 11.3 0.00 0.61 0.00 78 1011.5
20260903231533 13 331 6.4 11.3 0.00 0.61 0.00 78 1011.6
20260903230032 13 337 6.4 16.1 0.00 0.64 0.00 75 1011.5
20260903223106 15 307 6.4 14.5 0.00 0.66 0.00 74 1011.5
20260903221530 15 277 3.2 11.3 0.00 0.69 0.00 78 1011.6
20260903220032 15 259 1.6 6.4 0.00 0.69 0.00 77 1011.7
20260903214532 15 304 3.2 9.7 0.00 0.71 0.00 77 1011.7
20260903213035 15 286 3.2 8.0 0.00 0.71 0.00 78 1011.7
20260903211536 15 283 4.8 11.3 0.00 0.71 0.00 78 1011.7
20260903210033 15 289 4.8 14.5 0.00 0.71 0.00 77 1011.7
20260903204533 15 308 8.0 17.7 0.00 0.76 0.00 79 1011.7
20260903203030 13 311 8.0 17.7 0.00 0.79 0.00 81 1011.8
20260903201535 13 300 4.8 12.9 0.00 0.81 0.00 80 1011.9
20260903200030 13 290 6.4 16.1 0.00 0.84 0.00 79 1011.9
20260903194643 15 329 8.0 16.1 0.00 0.84 0.00 78 1012.0
20260903193030 15 312 4.8 14.5 0.00 0.84 0.00 80 1012.2
20260903191531 15 353 8.0 14.5 0.00 0.84 0.00 81 1012.3
20260903190031 13 339 6.4 12.9 0.00 0.84 0.00 81 1012.5
20260903184531 12 15 6.4 11.3 0.00 0.84 0.00 81 1012.6
20260903183029 12 12 4.8 8.0 0.00 0.84 0.00 82 1012.6
20260903181535 12 319 3.2 9.7 0.00 0.84 0.00 84 1012.5
20260903180031 12 331 3.2 11.3 0.00 0.84 0.00 85 1012.6
20260903173035 11 346 6.4 11.3 0.00 0.84 0.00 88 1012.5
20260903170032 11 6 4.8 9.7 0.00 0.84 0.00 89 1012.6
20260903164606 10 307 3.2 9.7 0.00 0.84 0.00 91 1012.6
20260903161531 9 292 0.0 8.0 0.00 0.84 0.00 92 1012.6
20260903160105 9 332 0.0 6.4 0.00 0.84 0.00 92 1012.7
20260903154535 9 278 1.6 8.0 0.00 0.84 0.00 92 1012.6
20260903153029 8 196 3.2 8.0 0.00 0.84 0.00 92 1012.5
20260903150035 7 113 3.2 9.7 0.00 0.84 0.00 94 1012.6
20260903144606 7 175 4.8 11.3 0.00 0.84 0.00 95 1012.4
20260903143030 7 145 3.2 8.0 0.00 0.84 0.00 95 1012.3
20260903140044 6 155 6.4 11.3 0.00 0.84 0.00 94 1012.0
20260903134531 6 142 6.4 9.7 0.00 0.84 0.00 94 1012.0
20260903133106 6 133 3.2 9.7 0.00 0.84 0.00 94 1012.0
20260903130034 6 166 1.6 8.0 0.00 0.84 0.00 95 1011.9
20260903124529 6 165 4.8 12.9 0.00 0.84 0.00 95 1011.8
20260903121529 6 177 4.8 14.5 0.00 0.84 0.00 95 1011.8
20260903120034 6 185 8.0 12.9 0.00 0.84 0.00 95 1011.8
20260903114532 6 114 4.8 16.1 0.00 0.84 0.00 95 1011.8
20260903113036 6 145 3.2 6.4 0.00 0.84 0.00 95 1011.9
20260903110032 5 163 6.4 14.5 0.00 0.84 0.00 94 1011.5
20260903104532 5 145 6.4 12.9 0.00 0.84 0.00 94 1011.4
20260903103033 5 160 8.0 12.9 0.00 0.84 0.00 94 1011.3
20260903101530 5 149 4.8 9.7 0.00 0.84 0.00 94 1011.3
20260903100036 5 153 4.8 9.7 0.00 0.84 0.00 94 1011.4
20260903093036 5 179 4.8 12.9 0.00 0.84 0.00 94 1011.3
20260903091532 6 157 6.4 12.9 0.00 0.84 0.00 94 1011.3
20260903090036 5 143 6.4 11.3 0.00 0.84 0.00 93 1011.5
20260903084534 6 148 6.4 9.7 0.00 0.84 0.00 93 1011.5
20260903083036 6 158 6.4 11.3 0.00 0.84 0.00 93 1011.4
20260903081531 5 154 6.4 12.9 0.00 0.84 0.00 93 1011.4
20260903080142 6 156 6.4 9.7 0.00 0.84 0.00 93 1011.3
20260903074537 6 167 4.8 8.0 0.00 0.84 0.00 92 1011.2
20260903073036 6 171 4.8 8.0 0.00 0.84 0.00 92 1011.1
20260903071653 6 339 1.6 9.7 0.00 0.84 0.00 92 1011.1
20260903070035 6 202 0.0 6.4 0.00 0.84 0.00 91 1011.0
20260903063142 7 328 4.8 11.3 0.00 0.84 0.84 90 1011.0